Weather History for Point Salines, Grenada

Change the Weather History Date:

Thursday, August 8, 2013

  Actual Average Record
Temperature  
Mean Temperature 82 °F -  
Max Temperature 86 °F 85 °F 89 °F (1998)
Min Temperature 77 °F 75 °F 76 °F (2012)
Cooling Degree Days 16    
Growing Degree Days 32 (Base 50)    
Moisture  
Dew Point 76 °F    
Average Humidity 85    
Maximum Humidity 94    
Minimum Humidity 74    
Precipitation  
Precipitation 0.08 in - - ()
Sea Level Pressure  
Sea Level Pressure 29.86 in    
Wind  
Wind Speed 11 mph ()    
Max Wind Speed 17 mph    
Max Gust Speed -    
Visibility 6.7 miles    
Events Rain , Thunderstorm    
Averages and records for this station are not official NWS values.
T = Trace of Precipitation, MM = Missing Value Source: Averaged Metar Reports

Daily Weather History Graph

Daily Weather History Graph

Search for Another Location

Airport:

Trip Planner

Search our weather history database for the weather conditions in past years. The results will help you decide how hot, cold, wet, or windy it might be!

Date:

Astronomy

Aug. 08, 2013 Rise Set
Actual Time 5:55 AM AST 6:30 PM AST
Civil Twilight 5:33 AM AST 6:52 PM AST
Nautical Twilight 5:07 AM AST 7:18 PM AST
Astronomical Twilight 4:40 AM AST 7:44 PM AST
Moon 7:09 AM AST (8/8) 7:39 PM AST (8/8)
Length of Visible Light 13h 19m
Length of Day
12h 34m
Waxing Crescent, 3% of the Moon is Illuminated
Aug 8
Waxing Crescent
Aug 14
First Quarter
Aug 20
Full
Aug 28
Last Quarter
Sep 5
New

Hourly Weather History & Observations

Time (AST) Temp. Heat Index Dew Point Humidity Pressure Visibility Wind Dir Wind Speed Gust Speed Precip Events Conditions
12:00 AM 82.4 °F 90.9 °F 77.0 °F 84% 29.86 in 6.2 mi ESE 16.1 mph - N/A   Mostly Cloudy
1:00 AM 82.4 °F 92.4 °F 78.8 °F 89% 29.86 in 6.2 mi ESE 11.5 mph - N/A   Mostly Cloudy
2:00 AM 80.6 °F 88.1 °F 78.8 °F 94% 29.86 in 6.2 mi SE 17.3 mph - N/A   Mostly Cloudy
3:00 AM 80.6 °F 86.2 °F 75.2 °F 84% 29.83 in 6.2 mi SE 13.8 mph - N/A   Mostly Cloudy
4:00 AM 77.0 °F - 75.2 °F 94% 29.83 in 6.2 mi ESE 11.5 mph - N/A Rain Light Rain Showers
5:00 AM 77 °F - 74 °F 87% 29.85 in 7 mi ESE 11.5 mph - - Rain Light Rain
5:00 AM 77.0 °F - 73.4 °F 89% 29.83 in 6.2 mi ESE 11.5 mph - N/A Rain Light Rain
5:05 AM 77.0 °F - 73.4 °F 89% 29.83 in 6.2 mi ESE 11.5 mph - N/A Rain , Thunderstorm Light Thunderstorms and Rain
6:00 AM 77.0 °F - 75.2 °F 94% 29.86 in 6.2 mi ESE 11.5 mph - N/A Rain Light Rain
7:00 AM 77.0 °F - 75.2 °F 94% 29.86 in 6.2 mi East 11.5 mph - N/A Rain Light Rain Showers
8:00 AM 79 °F - 77 °F 93% 29.88 in 5 mi East 10.4 mph - - Rain Light Rain
8:00 AM 78.8 °F - 77.0 °F 94% 29.89 in 5.0 mi East 10.4 mph - N/A Rain Light Rain
9:00 AM 84.2 °F 96.1 °F 78.8 °F 84% 29.86 in 6.2 mi ESE 13.8 mph - N/A Rain Light Rain
10:00 AM 86.0 °F 96.9 °F 77.0 °F 74% 29.89 in 6.2 mi ESE 16.1 mph - N/A   Mostly Cloudy
11:00 AM 86.0 °F 96.9 °F 77.0 °F 74% 29.89 in 6.2 mi ESE 16.1 mph - N/A   Mostly Cloudy
12:00 PM 86.0 °F 96.9 °F 77.0 °F 74% 29.89 in 6.2 mi SSW 12.7 mph - N/A   Scattered Clouds
1:00 PM 84.2 °F 94.1 °F 77.0 °F 79% 29.86 in 6.2 mi SSW 12.7 mph - N/A   Mostly Cloudy
2:00 PM 84 °F - 77 °F 75% 29.86 in 5 mi South 11.5 mph - -   Mostly Cloudy
2:00 PM 84.2 °F 94.1 °F 77.0 °F 79% 29.86 in 5.0 mi South 11.5 mph - N/A   Scattered Clouds
3:00 PM 82.4 °F 89.5 °F 75.2 °F 79% 29.83 in 6.2 mi NNE 6.9 mph - N/A   Mostly Cloudy
4:00 PM 84.2 °F 94.1 °F 77.0 °F 79% 29.80 in 6.2 mi ESE 15.0 mph - N/A   Scattered Clouds
5:00 PM 82.4 °F 92.4 °F 78.8 °F 89% 29.83 in 6.2 mi ESE 15.0 mph - N/A   Mostly Cloudy
6:00 PM 82.4 °F 90.9 °F 77.0 °F 84% 29.83 in 6.2 mi East 9.2 mph - N/A   Mostly Cloudy
7:00 PM 80.6 °F 86.2 °F 75.2 °F 84% 29.83 in 6.2 mi East 6.9 mph - N/A   Mostly Cloudy
8:00 PM 80 °F - 77 °F 87% 29.86 in 16 mi East 5.8 mph - -   Partly Cloudy
8:00 PM 80.6 °F 86.2 °F 75.2 °F 84% 29.86 in 6.2 mi East 5.8 mph - N/A   Mostly Cloudy
9:00 PM 80.6 °F 86.2 °F 75.2 °F 84% 29.86 in 6.2 mi Variable 1.2 mph - N/A   Scattered Clouds
10:00 PM 78.8 °F - 75.2 °F 89% 29.89 in 6.2 mi Calm Calm - N/A   Scattered Clouds
11:00 PM 78 °F - 75 °F 86% 29.89 in 16 mi East 6.9 mph - -   Scattered Clouds
11:00 PM 78.8 °F - 75.2 °F 89% 29.89 in 6.2 mi East 6.9 mph - N/A   Scattered Clouds